Theta_e
324 324 322 320 318 312 310 311 311 311 311 312 312 313 313 310 308 312 313 316 317 323 335 336 343 347 355 353 353 350 360 363 359 350 348 343 346 345 343 344 343 343 344 345 348
324 323 323 320 319 314 311 311 312 311 312 312 313 314 314 310 313 318 312 319 322 322 338 340 343 348 355 357 353 352 357 355 353 351 346 342 347 345 345 344 344 345 345 348 349
324 323 322 321 320 314 312 311 311 311 312 314 313 313 314 310 325 325 314 320 319 320 330 341 338 350 353 356 358 356 356 354 351 352 341 345 346 344 345 347 344 347 349 349 348
324 323 322 321 320 316 312 311 311 312 314 313 312 313 311 316 330 329 317 320 318 315 318 330 336 349 355 354 351 359 355 354 351 350 344 346 343 346 345 344 342 342 348 349 348
324 323 321 321 319 315 313 311 311 313 314 311 311 311 311 320 318 329 321 318 316 314 325 336 339 349 353 351 356 356 354 351 348 349 349 342 345 346 345 342 341 340 343 345 347
325 323 322 321 318 315 313 312 312 313 313 311 308 309 319 320 325 326 319 318 315 317 330 335 336 337 349 352 353 352 350 349 348 349 346 345 345 345 344 343 342 341 340 340 342
325 324 323 321 318 316 313 312 313 314 313 313 309 314 318 322 324 319 316 312 314 323 334 335 333 328 344 350 348 350 352 350 352 351 352 345 348 347 344 343 343 342 340 340 339
326 325 324 322 319 316 313 312 314 314 314 314 313 317 312 321 323 323 324 321 317 320 330 330 328 321 342 343 348 353 349 350 353 352 351 346 353 345 342 342 343 342 341 341 339
326 325 325 323 320 317 313 313 315 315 314 316 322 318 319 322 319 323 327 326 327 328 329 330 324 320 321 323 334 343 349 353 356 351 353 355 359 353 348 343 342 341 341 340 338
326 326 325 324 320 316 313 318 319 318 320 320 321 319 320 320 318 320 325 327 324 322 319 320 314 317 317 322 336 339 349 348 357 352 352 358 355 356 350 347 345 340 339 340 338
327 326 325 324 322 314 315 320 313 314 321 317 321 320 320 322 319 321 322 324 321 317 318 315 316 318 320 321 327 331 340 351 354 352 353 357 353 352 350 351 350 345 345 339 337
327 326 325 324 319 316 317 316 319 317 316 315 319 321 321 322 318 320 322 319 318 318 317 315 316 317 318 319 320 321 328 350 353 353 351 356 354 351 349 352 352 351 349 340 337
325 325 324 324 314 319 314 318 318 318 313 315 317 319 320 318 319 319 319 319 319 319 317 316 317 318 318 319 319 320 336 350 354 354 351 353 355 354 350 350 351 352 351 341 339
325 323 323 325 316 315 316 319 320 317 315 320 320 321 317 317 318 319 320 319 318 318 315 315 316 319 319 318 317 318 327 343 350 350 351 350 357 349 351 350 353 351 352 347 341
325 323 324 324 318 317 317 319 319 315 320 321 318 317 314 316 317 319 319 318 318 317 315 316 317 318 319 319 318 319 322 339 347 345 344 351 350 340 348 352 350 351 351 349 345
324 323 324 320 316 316 319 320 317 315 322 320 316 315 314 315 317 317 319 317 317 317 315 315 315 317 317 319 319 324 327 323 332 338 346 345 351 341 353 352 350 350 350 349 348
325 322 323 322 315 319 319 314 315 318 318 317 316 316 314 315 315 317 318 318 314 315 313 314 317 317 318 321 323 320 324 325 330 344 349 335 340 343 341 349 347 349 350 349 349
326 322 323 321 315 317 318 315 323 322 321 320 315 314 316 314 315 316 314 314 313 313 312 314 316 318 320 322 321 323 321 322 328 333 339 330 338 339 355 355 351 346 347 349 349
327 322 322 319 320 317 313 318 318 321 323 322 316 317 316 315 316 315 313 312 312 311 313 313 318 318 319 320 321 320 321 319 321 317 320 321 321 338 355 357 346 342 346 350 351
324 321 322 321 317 316 314 317 319 319 320 319 317 315 314 314 315 313 312 312 314 312 312 314 316 316 317 319 317 319 317 321 316 323 323 320 353 365 364 364 363 351 349 348 347
321 319 320 322 319 311 314 314 317 318 318 319 319 318 316 318 312 311 313 313 313 314 311 311 312 315 315 317 316 314 314 312 314 314 318 319 344 360 362 361 362 360 359 359 357
318 318 318 320 316 309 314 315 317 319 320 319 316 315 315 314 316 312 311 312 314 314 317 314 310 314 316 315 314 313 313 311 314 315 313 318 359 352 356 358 356 355 354 352 352
319 318 322 320 317 315 316 321 322 322 321 321 319 315 315 315 318 315 315 317 315 317 317 316 313 313 315 314 316 317 318 311 309 311 316 318 348 349 354 352 352 352 350 348 347
318 322 316 314 313 319 326 326 325 325 324 321 321 317 318 318 316 319 318 318 319 319 326 318 311 312 313 316 316 320 320 319 312 313 313 314 356 350 352 349 349 349 348 347 346
317 322 318 325 324 326 323 325 327 327 324 320 320 319 317 319 318 318 317 318 318 326 316 312 314 314 314 317 318 319 320 323 315 314 319 335 351 350 349 347 346 345 346 346 346
321 322 320 321 320 323 323 325 327 326 325 325 322 322 318 318 317 319 315 315 317 317 317 311 315 317 318 317 319 320 325 334 329 328 346 345 347 342 346 343 344 343 343 343 344
321 321 320 322 321 325 324 327 326 322 322 321 321 320 320 318 316 312 312 312 314 314 313 313 315 314 316 319 319 319 328 343 346 345 343 345 342 346 347 345 342 342 341 342 342
Wind_Speed
20 20 18 17 16 16 18 18 18 15 14 13 13 13 13 13 10 3 4 4 8 14 14 17 10 7 10 6 6 2 2 2 3 4 7 9 6 9 4 11 3 0 7 14 23
19 19 18 17 17 16 18 18 19 16 12 13 13 12 12 13 7 5 4 9 10 14 17 14 7 9 3 4 3 2 0 4 2 4 12 10 15 9 7 10 9 9 14 28 25
22 20 18 17 17 17 18 18 18 13 12 12 12 11 9 11 1 3 12 13 12 12 9 10 9 6 3 3 3 2 3 2 4 3 9 12 8 2 16 2 16 17 19 22 22
23 21 19 18 17 17 19 18 16 11 11 10 10 8 8 3 5 0 12 15 10 8 9 7 3 6 5 5 6 4 8 4 5 4 8 13 6 6 3 5 12 15 20 18 16
25 22 21 21 19 20 19 18 14 9 8 8 8 6 3 2 5 4 8 13 12 9 9 6 6 6 6 6 5 3 2 2 7 9 4 12 6 4 2 16 12 14 15 16 16
26 25 23 22 21 23 19 17 11 7 6 7 7 5 1 2 3 4 8 13 11 12 7 4 4 4 6 4 3 5 2 5 6 9 8 12 6 4 7 16 13 13 14 15 16
27 27 26 24 22 22 21 15 8 5 3 4 5 3 2 5 2 4 6 8 10 10 4 6 4 2 6 3 6 3 5 10 12 11 8 15 4 4 14 15 14 10 10 8 9
27 28 28 27 25 24 20 12 5 3 2 4 4 1 5 2 3 7 6 2 5 9 7 10 11 3 3 2 2 3 5 4 5 8 8 10 4 7 7 13 13 13 11 8 7
27 29 30 30 26 27 18 9 2 0 0 2 2 2 5 4 4 10 9 3 5 7 8 13 6 2 4 4 4 8 2 4 2 3 3 7 2 3 2 6 9 12 12 9 7
26 28 31 30 27 24 14 5 3 2 3 2 1 2 2 2 3 8 11 6 1 1 3 2 5 4 4 4 3 3 3 5 5 2 3 7 13 10 10 7 11 10 8 8 11
26 29 32 33 31 18 11 3 4 3 1 4 2 3 4 5 2 4 6 5 1 6 2 5 4 5 11 5 4 1 1 4 4 10 6 12 16 13 12 5 7 8 7 8 13
27 29 32 30 23 9 6 3 2 1 6 6 4 6 10 5 1 2 7 4 4 4 3 6 4 9 2 4 2 4 1 4 4 16 3 8 10 10 7 4 8 7 7 10 7
28 30 34 30 10 3 10 2 17 3 2 6 4 4 4 9 5 6 7 3 3 4 4 6 7 4 4 4 4 4 5 5 8 11 1 7 5 6 6 5 7 10 6 10 13
30 32 36 29 2 13 6 13 14 4 4 5 2 5 3 5 2 6 9 5 1 7 7 5 4 5 5 6 6 3 7 7 8 9 6 7 4 6 10 12 12 13 12 8 14
30 35 30 21 10 3 6 17 8 4 3 2 3 1 2 7 1 3 5 4 6 4 6 6 3 2 4 7 6 10 8 10 7 5 4 4 2 7 9 12 15 15 18 14 12
34 33 28 8 8 5 12 12 3 5 1 1 4 4 5 1 2 3 3 4 2 4 1 7 3 4 8 4 7 3 5 9 6 4 1 6 7 6 7 13 14 14 16 15 15
37 30 22 9 3 0 12 4 5 3 4 2 5 4 4 5 3 6 6 6 4 2 4 5 4 4 4 2 1 6 6 1 1 1 6 2 4 10 4 7 13 15 16 18 17
37 27 11 11 1 2 3 5 2 3 5 2 1 3 5 6 5 5 5 3 3 4 2 2 6 5 3 7 8 5 8 6 5 4 5 3 5 5 12 15 11 15 15 14 16
37 14 8 1 10 3 5 2 6 5 1 5 1 4 3 4 4 3 7 6 8 9 8 5 5 4 3 3 7 4 3 4 7 3 3 3 7 3 21 21 16 19 16 14 10
26 10 6 4 12 5 4 4 4 4 3 3 5 5 6 0 4 7 8 5 6 10 5 4 2 4 4 2 2 4 6 3 3 4 3 3 2 5 16 16 17 9 2 7 5
8 4 5 11 6 5 3 6 5 5 5 5 3 4 4 3 6 6 7 5 6 4 7 6 5 6 1 3 9 2 2 7 5 5 5 1 2 4 9 11 12 12 16 13 11
5 3 3 9 3 1 3 6 4 2 3 8 5 9 8 8 6 6 8 10 8 9 10 5 6 3 8 3 5 1 5 5 5 4 2 3 3 4 7 10 10 13 15 15 15
3 3 2 4 2 3 5 4 3 4 3 2 4 3 3 7 2 5 5 3 6 7 10 8 1 2 9 6 6 7 3 5 3 3 6 6 4 2 2 9 10 12 13 13 15
2 3 4 4 1 5 2 4 3 4 4 3 5 2 2 3 4 5 5 2 1 3 6 8 4 7 7 6 3 2 4 0 5 4 5 6 11 8 8 4 11 11 9 10 13
1 4 2 4 2 1 3 2 3 3 3 6 4 4 3 4 2 4 3 1 4 1 3 5 6 4 3 4 4 1 4 4 8 6 6 8 9 14 11 6 6 11 7 7 9
2 1 4 3 3 3 1 3 1 3 2 4 4 4 5 4 6 7 7 4 6 3 1 3 2 2 3 6 4 2 3 4 3 7 8 14 8 5 6 5 4 5 12 6 7
2 2 2 2 2 2 3 2 3 3 4 1 6 5 2 3 4 6 7 5 6 9 5 4 6 3 3 1 3 1 4 3 2 5 8 11 9 12 9 5 4 4 4 6 9
Wind_Direction
356 354 354 351 350 349 348 347 343 338 333 332 332 329 327 326 333 284 237 149 162 141 133 141 143 118 22 22 53 66 56 332 280 152 149 165 128 166 67 134 110 289 119 132 135
353 352 350 349 349 348 350 347 343 337 334 332 334 333 326 325 335 250 184 163 149 157 146 156 166 141 49 22 56 99 152 244 278 323 161 164 150 147 129 148 114 84 105 132 139
358 352 349 348 346 349 350 347 343 337 334 335 337 335 326 329 321 237 171 162 155 164 158 172 137 135 75 121 190 160 242 65 323 0 151 153 152 78 139 147 157 145 143 147 145
358 354 355 351 349 349 348 347 341 338 338 341 343 347 334 348 138 160 173 177 184 186 162 164 142 141 147 192 181 210 247 262 270 29 156 149 144 129 133 165 155 139 149 147 156
1 360 357 355 353 348 347 345 339 338 340 343 343 354 10 7 255 181 165 185 187 182 180 181 173 153 165 171 171 241 298 305 296 272 202 132 133 126 128 136 135 135 148 159 169
0 360 354 351 348 345 345 342 341 340 348 356 349 353 84 103 308 201 184 187 197 171 196 196 212 199 132 174 211 182 223 277 332 59 149 129 131 75 140 137 147 153 158 171 177
356 356 354 351 347 344 342 340 337 340 353 360 2 26 34 204 306 172 175 203 200 188 175 224 247 172 143 155 201 182 84 64 42 23 48 106 72 141 152 149 158 170 185 185 173
352 353 352 350 346 343 341 336 332 331 346 354 3 56 241 113 269 198 184 191 210 213 258 293 297 203 127 224 89 120 45 69 319 54 358 82 10 118 162 156 177 186 194 197 200
350 350 350 349 347 341 343 339 316 25 210 349 53 53 276 321 172 216 203 171 183 242 264 280 313 100 41 82 14 36 103 106 168 150 88 97 320 259 116 139 209 200 198 194 199
349 349 348 348 346 338 348 28 97 112 111 86 294 354 299 296 200 194 215 218 188 246 10 55 45 63 32 72 204 205 173 166 167 221 156 165 194 214 226 177 212 214 218 187 190
349 347 346 346 342 336 353 117 21 8 139 219 217 247 270 314 228 182 183 148 33 44 125 3 68 202 214 176 137 66 264 56 126 184 147 214 189 203 209 177 222 221 207 204 192
348 346 345 347 340 352 25 61 73 74 318 235 237 276 270 257 189 265 150 133 131 172 89 21 246 239 122 224 247 231 290 165 54 145 125 210 240 231 233 221 204 215 221 197 175
348 347 343 348 349 30 325 9 342 316 116 298 193 198 216 145 200 212 133 146 134 138 154 168 229 121 167 251 208 243 163 195 165 172 134 162 250 212 261 225 213 231 223 195 184
348 346 341 345 38 337 319 344 352 144 65 285 240 265 138 136 275 203 172 141 80 189 172 231 249 215 230 240 154 259 210 165 148 140 199 170 265 241 199 219 228 231 219 212 179
343 341 336 337 299 273 325 333 6 86 73 174 222 201 140 139 257 233 161 64 187 185 103 248 291 217 230 226 159 236 178 182 182 119 91 203 87 260 172 227 225 216 216 203 195
339 339 332 329 288 261 335 342 67 41 166 226 180 168 109 57 292 22 135 71 155 199 89 241 249 208 208 244 181 280 87 42 46 80 143 223 150 267 190 215 221 216 210 204 196
338 337 315 281 243 320 340 38 44 136 356 237 206 160 172 172 235 171 172 187 171 95 347 313 257 257 188 297 110 82 73 8 26 75 220 193 151 242 340 318 262 206 196 195 198
338 333 308 266 183 298 25 54 175 217 236 43 156 75 181 162 238 174 116 210 210 108 111 134 324 189 191 181 184 181 149 152 196 185 242 127 225 230 2 331 257 227 206 192 195
339 333 307 340 208 198 72 93 211 205 304 327 24 134 242 221 175 135 184 215 207 168 163 160 266 294 240 202 141 208 151 172 100 3 79 259 305 257 359 346 326 211 180 186 181
339 331 289 147 143 109 78 238 241 221 9 6 196 166 201 296 159 165 185 216 216 184 150 207 294 238 288 105 43 160 158 77 21 172 219 274 72 318 346 352 8 26 93 87 140
353 4 0 154 151 54 166 230 264 259 45 358 331 290 194 201 186 186 228 260 189 159 142 143 126 273 63 191 193 54 57 45 114 126 161 202 293 0 331 17 27 30 54 46 51
6 346 61 165 51 27 178 201 253 299 274 250 200 205 195 192 206 211 219 214 178 158 160 195 146 221 230 265 257 120 143 138 133 238 163 151 209 333 328 56 44 42 45 49 50
352 266 352 202 197 257 294 294 265 296 291 264 279 249 180 177 221 186 215 277 179 160 162 183 59 33 334 356 360 65 46 120 104 80 195 144 205 179 178 86 65 56 52 48 50
16 332 313 44 54 134 13 271 290 295 279 293 268 233 256 195 213 203 204 5 45 243 122 92 124 155 194 203 173 16 331 189 142 139 180 203 154 171 146 133 96 74 59 66 52
130 251 221 294 318 334 204 241 266 314 352 1 341 54 261 252 132 197 198 138 22 173 47 112 154 157 185 156 145 181 309 307 205 200 162 173 147 164 150 183 143 125 110 76 75
226 258 351 288 307 308 221 239 312 359 268 295 341 291 330 214 201 198 173 189 184 196 95 6 155 129 129 206 152 138 291 317 313 123 75 114 120 168 159 152 98 117 102 126 102
255 286 153 247 318 36 246 5 11 12 286 350 326 283 277 226 247 259 223 172 178 157 153 122 129 101 199 305 126 102 217 135 51 360 156 144 179 155 146 120 124 81 71 52 52